User: anonymous   Login
Location: Ciserano
(45.5833°N, 9.6000°E)
Time: 07:22:58
(UTC+00:00)
Language:

Cosmos 1812 Rocket - Orbit

View from above orbital plane
View from above orbital plane
View from above satellite
View from above satellite

Ground track
Ground track

The orbit data is extracted from the following two-line orbital elements,

1 17296U 87003B   21166.87303169  .00000097  00000-0  88535-5 0  9996
2 17296  82.5299  99.6306 0020624  88.5443 271.8134 14.83336567838406
Epoch (UTC): 15 June 2021 20:57:09
Eccentricity: 0.0020624
inclination: 82.5299°
perigee height: 604 km
apogee height: 633 km
right ascension of ascending node: 99.6306°
argument of perigee: 88.5443°
revolutions per day: 14.83336567
mean anomaly at epoch: 271.8134°
orbit number at epoch: 83840

The dashed part of the orbit path shows where the satellite is in the earth's shadow,  

DLR